973  
ASUS41 KAKQ 182115  
RWRAKQ  
 
REGIONAL WEATHER ROUNDUP  
NATIONAL WEATHER SERVICE WAKEFIELD VA  
500 PM EDT THU JUL 18 2019  
 
NOTE: "FAIR" INDICATES FEW OR NO CLOUDS BELOW 12,000 FEET WITH NO  
SIGNIFICANT WEATHER AND/OR S TO VISIBILITY
. * = DENOTES  
STATION MAY NOT REPORT PRECIPITATION (E.G., RAIN,SNOW,ETC.),
 
THUNDER OR FOG.  
 
VAZ042-051-052>054-056-182200-  
NORTHERN VIRGINIA  
 
CITY SKY/WX TMP DP RH WIND PRES REMARKS
 
WASH NATIONAL PTSUNNY 92 71 50 NW8 29.87R HX 98  
DULLES PTSUNNY 90 71 53 W8 29.87F HX 96  
FORT BELVOIR FAIR 92 72 50 NW5 29.86S HX 100  
QUANTICO PTSUNNY 93 74 53 NW8 29.87S HX 103  
FREDERICKSBRG* PTSUNNY 93 75 56 W3 29.85F HX 104  
STAFFORD* PTSUNNY 96 72 45 NW5 29.91F HX 104  
WARRENTON FAIR 94 67 41 CALM 29.88F HX 97  
CULPEPER* FAIR 93 70 46 CALM 29.88F HX 98  
MANASSAS* FAIR 91 73 55 VRB5 29.87F HX 99  
LEESBURG* FAIR 90 75 62 NW5 29.89S HX 100  
WINCHESTER FAIR 90 68 48 W12 29.91S  
FRONT ROYAL* MOCLDY 88 70 55 CALM 29.89F  
LURAY* FAIR 91 66 43 CALM 29.91F  

 
 
VAZ048-049-060>072-079>083-182200-  
CENTRAL AND SOUTH CENTRAL VIRGINIA  
 
CITY SKY/WX TMP DP RH WIND PRES REMARKS
 
RICHMOND FAIR 95 72 47 SW10 29.86F HX 103  
CHESTERFIELD* FAIR 94 73 50 SW10 29.87F HX 103  
PETERSBURG* FAIR 94 72 49 SW7 29.88F HX 102  
HANOVER FAIR 93 70 46 VRB6 29.87F HX 99  
TAPPAHANNOCK* FAIR 93 75 55 SW7 29.87F HX 104  
QUINTON* FAIR 93 74 54 S6 29.85F HX 104  
CHARLOTTSVILLE FAIR 85 71 63 W12 29.90S  
GORDONSVILLE* MOCLDY 90 75 62 CALM 29.87F HX 100  
ORANGE* FAIR 90 72 55 CALM 29.88F HX 96  
LOUISA* FAIR 86 78 78 N3 29.92F HX 98  
BUMPASS* FAIR 92 72 52 NW3 29.87F HX 99  
FARMVILLE* FAIR 92 74 54 W3 29.87F HX 101  
CREWE* FAIR N/A N/A N/A CALM 29.88F  
FORT PICKETT* FAIR 93 73 52 SW13 29.89F HX 102  
CHASE CITY* FAIR 92 72 51 W9G18 29.90S HX 100  
CLARKSVILLE* MOCLDY 90 72 55 W7 29.90S HX 96  
SOUTH HILL* FAIR N/A N/A N/A SW10 29.94F  
LAWRENCEVILLE* FAIR 93 73 52 S7 29.89F HX 101  
EMPORIA* FAIR 93 73 51 S7 29.89F HX 101  

 
 
VAZ088>098-182200-  
SOUTHEAST VIRGINIA  
 
CITY SKY/WX TMP DP RH WIND PRES REMARKS
 
NORFOLK PTSUNNY 94 73 50 SW17 29.87F HX 103  
VIRGINIA BEACH FAIR 92 72 51 SW12G22 29.87F HX 99  
NORFOLK NAVAL FAIR 92 74 55 SW16G23 29.88F THUNDER HX 101  
WEST POINT* FAIR 92 77 60 SW8 29.87F HX 106  
SALUDA* FAIR 93 77 59 SW6 29.85F HX 106  
NEWPORT NEWS FAIR 92 76 59 SW12 29.87F HX 104  
LANGLEY AFB MOSUNNY 93 77 59 SW12G17 29.87F THUNDER HX 107  
FORT EUSTIS MOSUNNY 93 72 50 SW8 29.85F HX 101  
WILLIAMSBURG* FAIR 95 75 52 SW9 29.87F HX 107  
HR EXEC AP* FAIR 92 76 59 SW9 29.88F HX 104  
FRANKLIN* FAIR 94 73 51 SW7 29.88F HX 103  
US460-WAKEFLD FAIR 94 73 50 W8 29.87F HX 103  

 
 
VAZ020-022-025-037-045-182200-  
WEST CENTRAL AND SOUTHWEST VIRGINIA  
 
CITY SKY/WX TMP DP RH WIND PRES REMARKS
 
STAUNTON* FAIR 85 71 62 S7 29.95F  
WAYNESBORO* FAIR 77 75 92 S3 29.96F  
HOT SPRINGS VA CLOUDY 73 73 100 W9 30.12S  
LYNCHBURG LGT RAIN 83 71 67 VRB7 29.93S  
DANVILLE FAIR 89 73 59 W9 29.93F HX 97  
SOUTH BOSTON* FAIR 87 73 62 W5 29.91F  
MARTINSVILLE FAIR 84 77 79 W6 29.99F  
ROANOKE PTSUNNY 87 67 51 N10 29.97S  
BLACKSBURG PTSUNNY 84 71 65 NW10G17 30.06R  
DUBLIN* LGT RAIN 81 72 73 W7 30.05R  
MARION* FAIR 77 75 92 SW7 30.11S  
HILLSVILLE* FAIR 79 72 78 W5 30.07F  
RICHLANDS* FAIR 75 70 84 W3 30.10S  
WISE* LGT RAIN 75 75 100 NW5 30.10F  
ABINGDON* LGT RAIN 75 73 93 NE6 30.07F  

 
 
MDZ021>025-VAZ099-100-182200-  
SOUTHERN MARYLAND AND THE DELMARVA PENINSULA  
 
CITY SKY/WX TMP DP RH WIND PRES REMARKS
 
PATUXENT RIVER PTSUNNY 93 74 53 W8 29.85F HX 103  
BAY BRIDGE APT PTSUNNY 91 77 62 S6 29.84F HX 105  
LEONARDTOWN CLOUDY 90 73 58 W5 29.87F HX 98  
DOVER FAIR 91 74 56 SW12 29.83F HX 100  
GEORGETOWN FAIR 91 76 61 SW7 29.85F HX 103  
EASTON MOSUNNY 93 75 55 SW7 29.89S HX 104  
CAMBRIDGE PTSUNNY 90 75 62 VRB5 29.85S HX 100  
SALISBURY FAIR 90 75 61 SW12 29.85F HX 100  
TANGIER FAIR 91 82 75 S9 29.85F HX 114  
OCEAN CITY FAIR 88 77 69 S9 29.86F HX 100  
WALLOPS ISLAND FAIR 87 78 74 S15 29.86F HX 100  
ACCOMACK* FAIR N/A N/A N/A SW12 29.86F  

 
 
NCZ012>017-030>032-182200-  
NORTH CENTRAL AND EASTERN NORTH CAROLINA  
 
CITY SKY/WX TMP DP RH WIND PRES REMARKS
 
ROANOKE RAPIDS FAIR 82 75 78 CALM 29.90F  
RALEIGH PTSUNNY 93 69 45 W12G22 29.91F HX 98  
ELIZABETH CITY FAIR 92 73 53 S15 29.89F HX 100  
AHOSKIE* NOT AVBL  
EDENTON* NOT AVBL  
CURRITUCK* FAIR 91 76 61 MISG 29.89F HX 103  
KILL DEVIL HLS CLOUDY 88 78 74 S6 29.89F HX 101  
MANTEO FAIR 89 80 73 SW22 29.91F HX 105  
CAPE HATTERAS FAIR 86 79 79 SW13G22 29.96F HX 99  
TARBORO* NOT AVBL  
GOLDSBORO FAIR 95 73 49 S8 29.90F HX 104  
WASHINGTON FAIR 95 73 49 SW8 29.92F HX 104  
GREENVILLE FAIR 95 73 49 W10 29.93F HX 105  
NEW BERN FAIR 90 80 72 S10 29.94S HX 107  
WILMINGTON FAIR 88 75 65 S12 29.96R THUNDER HX 97  

 
 
VAZ048-182200-  
ELSEWHERE  
 
CITY SKY/WX TMP DP RH WIND PRES REMARKS
 
HARRISBURG PA FAIR 90 73 57 W7 29.84F HX 98  
BALTIMORE PTSUNNY 89 74 60 NW6G20 29.85S HX 98  
ANNAPOLIS FAIR 94 75 54 NW8 29.84S HX 105  
ANDREWS AFB FAIR 90 71 52 NW9 29.86S HX 96  
PHILADELPHIA LGT RAIN 81 73 76 N5 29.86F  
HENDERSON NC LGT RAIN 77 71 81 CALM 29.92S  
GREENSBORO PTSUNNY 89 71 55 SW10 29.94F HX 95  
ROCKY MOUNT FAIR 95 72 47 SW13 29.90F HX 103  

 
 
VAZ100-182200-  
MARINE  
 
STATION/POSITION TIME TEMP WIND PRES WAVE SWELL
 
AIR SEA DIR/SP/G HT/PER HT/PER  
(UTC) (F) (DEG/KT/KT) (MB) (FT/S) (FT/S)  
BRANDYWINE LGT 2030 1010.9F  
CAPE MAY NJ 2024 86 78 170/ 5/ 8 1010.3  
LEWES DE 2024 90 73 230/ 11/ 17 1010.8  
15NM E FENWICK I 2050 80 77 200/ 16/ 19 1010.8F 4/ 5 2/10  
OCEAN-CITY-INLET 2030 76 79 200/ 12/ 15 1012.0S  
WACHAPREAGUE VA 2024 89 210/ 11/ 15 1011.2  
THOMAS POINT MD 2100 86 82 160/ 7/ 9 1011.6F  
COVE POINT MD 2024 90 310/ 6/ 10 1011.5  
SOLOMONS ISLAND 2024 92 84 260/ 6/ 9 1010.4  
BISHOPS HEAD MD 2030 88 88 200/ 8/ 10 1011.4F  
PINEY POINT MD 2030 310/ 7/ 7 N/A  
CAMBRIDGE MD 2030 90 88 1010.6F  
LEWISETTA VA 2030 89 83 340/ 4/ 5 1010.9F  
RAPPAHANNOCK LGT 2018 1012.5  
YORK RVR RNG VA 2024 87 260/ 7/ 9 1012.3  
YORKTOWN VA 2024 91 85 250/ 6/ 8 1011.2  
DOMINION TERM VA 2030 87 270/ 5/ 6 1012.0S  
KIPTOPEKE VA 2030 85 250/ 8/ 10 N/A  
CAPE HENRY VA 2030 91 210/ 6/ 12 1011.7F  
WILLOUBY STN VA 2030 89 230/ 12/ 14 1011.1F  
S CRANEY ISL VA 2030 92 240/ 9/ 16 1011.6F  
CAPE HENRY BUOY 2100 80 N/A 3/ 5  
64NM E OF VA BCH 2050 83 82 200/ 19/ 23 1012.9F 5/ 6  
DUCK PIER NC 2018 90 60 210/ 12/ 17 1012.4  
44100 DUCK FRF 2100 83 N/A 3/ 4  
OREGON INLET NC 2030 85 87 190/ 22/ 26 1013.7F  
HATTERAS NC 2030 84 80 210/ 12/ 17 1014.6F  
DIAMOND SHLS NC 2050 85 85 210/ 19/ 23 1014.4F 4/ 5 2/10  
CAPE LOOKOUT NC 2100 85 210/ 16/ 22 1014.6F  

 
 
 
CLICK HERE TO GO TO PREVIOUS BULLETINS.

The Nexlab VA Page
The Nexlab NC Page
The Nexlab MD Page Main Text Page